Location: Oshawa
(43.9000°N, 78.8670°W)
Time: 23:36:51
(UTC-04:00)

ITAMSAT 1 - Visible Passes

Search period start: 28 August 2016 00:00
Search period end: 07 September 2016 00:00
Orbit: 783 x 798 km, 98.8° (Epoch: 28 August)

Date Brightness Start Highest point End Pass type
(mag) Time Alt. Az. Time Alt. Az. Time Alt. Az.
28 Aug 7.7 04:19:05 10° NNE 04:24:17 74° ESE 04:26:38 33° S visible
28 Aug 9.3 06:00:01 10° NNW 06:03:09 16° WNW 06:06:16 10° W visible
29 Aug 8.7 03:49:58 10° NNE 03:54:52 40° E 03:56:52 29° SE visible
29 Aug 8.7 05:29:48 10° N 05:34:09 28° WNW 05:37:36 14° WSW visible
30 Aug 9.6 03:21:18 10° NE 03:25:18 22° E 03:27:05 19° ESE visible
30 Aug 7.9 05:00:03 10° N 05:05:02 49° WNW 05:07:49 24° SW visible
31 Aug 10.2 02:53:49 10° ENE 02:55:38 12° E 02:57:19 10° ESE visible
31 Aug 7.6 04:30:34 10° NNE 04:35:47 88° WNW 04:38:03 35° SSW visible
01 Sep 8.3 04:01:21 10° NNE 04:06:25 51° E 04:08:16 34° SSE visible
01 Sep 9.0 05:41:34 10° NNW 05:45:33 23° WNW 05:49:00 12° WSW visible
02 Sep 9.3 03:32:29 10° NE 03:36:54 28° E 03:38:30 24° SE visible
02 Sep 8.2 05:11:40 10° N 05:16:28 39° WNW 05:19:14 22° WSW visible
03 Sep 10.0 03:04:19 10° NE 03:07:17 15° E 03:08:43 14° ESE visible
03 Sep 7.6 04:42:06 10° N 04:47:16 71° WNW 04:49:28 35° SSW visible
04 Sep 7.9 04:12:46 10° NNE 04:17:57 65° ESE 04:19:41 41° SSE visible
04 Sep 9.2 05:53:24 10° NNW 05:56:55 19° WNW 06:00:25 10° WSW visible
05 Sep 8.9 03:43:45 10° NNE 03:48:30 35° E 03:49:54 30° SE visible
05 Sep 8.5 05:23:20 10° N 05:27:53 32° WNW 05:30:38 19° WSW visible
06 Sep 9.7 03:15:14 10° NE 03:18:55 19° E 03:20:08 18° ESE visible
06 Sep 7.8 04:53:39 10° N 04:58:45 56° WNW 05:00:51 33° SW visible
